This demonstration page uses our WeatherBlox Daily Observations layout. Learn more.

Left ArrowRight Arrow

Hourly Observations for May 11, 2015

Temp ( °F °C ) Dew Point ( °F °C ) Humidity (%) Winds ( mph kmh ) Pressure ( in mb ) Visibility ( mi km ) Precip ( " mm )
12:53 am 00:53 Clear 57 13.9 31 -0.6 37 37 Calm 29.85 1011 10 16 0.00 0.00
1:53 am 01:53 Clear 53 11.7 35 1.7 51 51 NNE 3 6 29.86 1011 10 16 0.00 0.00
2:53 am 02:53 Clear 53 11.7 33 0.6 47 47 N 7 11 29.86 1011 10 16 0.00 0.00
3:53 am 03:53 Clear 50 10 33 0.6 52 52 N 8 13 29.86 1011 10 16 0.00 0.00
4:53 am 04:53 Clear 50 10 33 0.6 52 52 N 8 13 29.87 1011 10 16 0.00 0.00
5:53 am 05:53 Clear 50 10 38 3.3 63 63 N 7 11 29.88 1012 10 16 0.00 0.00
6:53 am 06:53 Clear 52 11.1 43 6.1 72 72 NNE 6 9 29.90 1013 10 16 0.00 0.00
7:53 am 07:53 Sunny 58 14.4 45 7.2 62 62 NE 12 19 29.94 1014 10 16 0.00 0.00
8:53 am 08:53 Sunny 62 16.7 46 7.8 56 56 NE 18 30 29.98 1015 10 16 0.00 0.00
9:42 am 09:42 Mostly Cloudy 63 17 46 8 56 56 ENE 16 26 30.06 1018 10 16 0.00 0.00
9:53 am 09:53 Cloudy 64 17.8 46 7.8 52 52 ENE 15 24 30.01 1016 10 16 0.00 0.00
10:53 am 10:53 Cloudy 67 19.4 43 6.1 42 42 ENE 12 19 30.03 1017 10 16 0.00 0.00
11:46 am 11:46 Mostly Cloudy 69 20.6 42 5.6 38 38 ENE 14 22 30.00 1016 10 16 0.00 0.00
11:53 am 11:53 Mostly Cloudy 70 21.1 42 5.6 37 37 ENE 14 22 30.04 1017 10 16 0.00 0.00
12:53 pm 12:53 Mostly Sunny 72 22.2 43 6.1 35 35 ENE 14 22 30.04 1017 10 16 0.00 0.00
1:53 pm 13:53 Cloudy 74 23.3 44 6.7 34 34 ENE 13 20 30.04 1017 10 16 0.00 0.00
2:53 pm 14:53 Partly Cloudy 78 25.6 45 7.2 31 31 NE 12 19 30.00 1016 10 16 0.00 0.00
3:53 pm 15:53 Partly Cloudy 78 25.6 47 8.3 33 33 ENE 14 22 29.99 1016 10 16 0.00 0.00
4:53 pm 16:53 Sunny 78 25.6 49 9.4 36 36 VRB 6 9 29.97 1015 10 16 0.00 0.00
5:53 pm 17:53 Partly Cloudy 78 25.6 48 8.9 35 35 E 10 17 29.95 1014 10 16 0.00 0.00
6:53 pm 18:53 Cloudy 77 25 47 8.3 35 35 E 13 20 29.95 1014 10 16 0.00 0.00
7:53 pm 19:53 Cloudy 75 23.9 46 7.8 36 36 E 13 20 29.96 1015 10 16 0.00 0.00
8:53 pm 20:53 Mostly Clear 71 21.7 46 7.8 41 41 E 14 22 29.98 1015 10 16 0.00 0.00
9:53 pm 21:53 Clear 68 20 45 7.2 44 44 E 12 19 30.02 1017 10 16 0.00 0.00
10:53 pm 22:53 Mostly Clear 66 18.9 45 7.2 47 47 ENE 12 19 30.04 1017 10 16 0.00 0.00
11:53 pm 23:53 Cloudy 66 18.9 44 6.7 45 45 E 14 22 30.07 1018 10 16 0.00 0.00

Powered by AerisWeather